Overview Statistics Trail Chart Weather Telemetry Raw packets
 

This is the latest recevied weather packets stored in our database for station/object NO9B. If no packets are shown the sender has not sent any weather packets the latest 10 day(s).

<< 30 31 32 33 34 35 36 >>
Time Temp. Humidity Pressure Rain* Wind** Luminosity Snow
1788457858 23.33° C 97% 1015.4 hPa 0.51 mm - 46 W/m² -
1788457552 23.33° C 97% 1015 hPa 0 mm - 81 W/m² -
1788457247 23.33° C 97% 1014.8 hPa 5.33 mm - 69 W/m² -
1788456942 23.33° C 97% 1015.2 hPa 18.03 mm - 34 W/m² -
1788456639 23.33° C 97% 1016 hPa 9.65 mm - 21 W/m² -
1788456338 23.33° C 98% 1015 hPa 0 mm - 27 W/m² -
1788456034 23.33° C 98% 1014.9 hPa 0 mm - 95 W/m² -
1788455729 22.78° C 97% 1014.8 hPa 10.16 mm - 126 W/m² -
1788455425 22.78° C 97% 1015.6 hPa 11.43 mm - 45 W/m² -
1788455123 22.78° C 97% 1016.1 hPa 1.27 mm - 18 W/m² -
1788454819 22.78° C 97% 1016.4 hPa 1.27 mm - 37 W/m² -
1788454517 22.78° C 97% 1016.8 hPa 0.51 mm - 36 W/m² -
1788454212 22.78° C 97% 1016.9 hPa 1.78 mm - 39 W/m² -
1788453912 22.78° C 97% 1017 hPa 2.29 mm - 32 W/m² -
1788453608 22.78° C 97% 1017.6 hPa 1.27 mm - 25 W/m² -
1788453303 22.22° C 97% 1017.9 hPa 1.78 mm - 21 W/m² -
1788452999 22.22° C 97% 1017.8 hPa 4.32 mm - 43 W/m² -
1788452695 22.22° C 97% 1017.7 hPa 6.1 mm - 26 W/m² -
1788452390 22.22° C 96% 1017.7 hPa 6.6 mm - 14 W/m² -
1788452085 22.22° C 96% 1017.6 hPa 6.6 mm - 9 W/m² -
1788451802 22.22° C 96% 1017.2 hPa 4.32 mm - 8 W/m² -
1788451480 22.22° C 96% 1017.2 hPa 7.87 mm - 7 W/m² -
1788451179 22.22° C 95% 1017 hPa 10.16 mm - 6 W/m² -
1788450879 22.22° C 95% 1017.4 hPa 6.1 mm - 3 W/m² -
1788450576 21.67° C 95% 1017.7 hPa 7.11 mm - 4 W/m² -

* Rain latest hour (hover to see other rain measurements)
** Current wind speed in m/s (hover to see current wind gust speed)